Tracking 18785 objects as of 20-August-2017
HD Live streaming from Space Station
objects crossing your sky now

UNHA 3 R/B

Track UNHA 3 R/B now!
10-day predictions


NORAD ID: 39027
Int'l Code: 2012-072B
Perigee: 487.9 km
Apogee: 570.0 km
Inclination: 97.3 °
Period: 95.1 minutes
Semi major axis: 6899 km
RCS: 1.274 m2 (large)
Launch date: December 12, 2012
Source: North Korea (NKOR)
Launch site: Yunsong, DPRK (YUN)

Note: This is a ROCKET BODY
Your satellite tracking list
Your tracking list is empty





NASA's NSSDC Master Catalog

Two Line Element Set (TLE):
1 39027U 12072B   17232.08154445 +.00000774 +00000-0 +43482-4 0  9992
2 39027 097.2614 234.2845 0059520 014.0327 346.2543 15.14732438226676
Source of the keplerian elements: AFSPC